Flight Information

DEPARTURE
SAN LUIS OBISPO, CA
Elevation:
212
Runways:
7/25 - 2500x100 - ASPH-G
11/29 - 6101x150 - ASPH-G
ATIS:
120.6
Ground:
121.6
Tower:
124
DESTINATION
,
Elevation:
TPA:
1000 (est.)


6875.8 NM71° True-14° Var56° HDG

Flight Plan:
(click to file on line)

1. Type
2. Aircraft Identification
3. Aircraft Type / Special Equipment
4. True Airspeed
kts
5. Departure Airport
(ICAO code)
6. Arriving Airport
(ICAO code)
7. Cruising Altitude
ft
8. Alternate Airport
(ICAO code)
9. Route of Flight
10. Remarks


00:00:00 Departure ATIS: Destination ATIS:

Clearance Limit:
Route:
Altitude: Expect in minutes
Frequency:
Transponder: (7500 Hijack / 7600 Lost Comms / 7700 Emergency)


KSBP 100556Z AUTO 12007KT 10SM OVC016 12/10 A3010 RMK AO2 SLP191 T01170100 10161 20111 58002
Time: 2022-12-10T05:56:00Z
1670653973
Winds: 120 @ 7 kts
Visibility: 10.0 sm
Clouds (AGL): OVC 1600
Temperature: 11.7 C
Dew Point: 10.0 C
Pressure: 30.100393 in Hgbr


Notes:

Data extracted from FAA Digital Chart Supplement. Effective: 0901Z Thursday, 27 JAN 2022 to 0900z Thursday, 24 MAR 2022
Current ATIS data is provided courtisy of PilotEdge.